Other Public Products
Issued by NWS Grand Forks, ND

Home | Current Version | Previous Version | Graphics & Text | Print | Product List | Glossary On
Versions: 1 2 3 4 5 6 7 8 9 10 11 12 13 14 15 16 17 18 19 20 21 22 23 24 25 26 27 28 29 30 31 32 33 34 35 36 37 38 39 40 41 42 43 44 45 46 47 48 49 50
000
FPUS83 KFGF 051610
OPUFGF
PRAIRIE TO PINES WEATHER ROUNDUP
NATIONAL WEATHER SERVICE EASTERN NORTH DAKOTA/GRAND FORKS ND
1000 AM CST MON DEC 05 2016

 **SATELLITE DATA USED TO AUGMENT SKY COVER AT AUTOMATED STATIONS**
 *****  WEATHER ACROSS EASTERN NORTH DAKOTA  *****

CITY           SKY/WX    TMP DP  RH WIND       PRES   REMARKS
GRAND FORKS    FOG       27  25  92 SE12      29.68F VSB 1   WCI  17
GRAND FORKS AF CLOUDY    27  25  93 E8        29.69R FOG     WCI  18
GRAND CITY NWS   N/A     27 N/A N/A E5          N/A  WCI  21
BUXTON         NOT AVBL
DEVILS LAKE    LGT SNOW  24  23  96 E15       29.61F FOG     WCI  11
FARGO          PTSUNNY   27  23  85 NE8       29.64F WCI  19
WAHPETON ARPT  MOSUNNY   32  28  86 E8        29.62F WCI  25
$$

 *****  WEATHER ACROSS CENTRAL AND WESTERN NORTH DAKOTA  *****

CITY           SKY/WX    TMP DP  RH WIND       PRES   REMARKS
JAMESTOWN      CLOUDY    26  24  92 E9        29.57F WCI  17
BISMARCK       LGT SNOW  29  27  92 W5        29.58R FOG     WCI  24
MINOT          CLOUDY    22  20  92 CALM      29.54R
MINOT AFB      CLOUDY    19  17  92 S3        29.54R
GARRISON         N/A     33  30  88 W10       29.55R WCI  25
WILLISTON      CLOUDY    23  17  78 NW26G35   29.61R BLWGSNOWWCI   6
DICKINSON      CLOUDY    24  20  84 W29G39    29.56S FOG     WCI   7
HETTINGER      MIX PCPN  25  21  85 NW28G35   29.58S FOG     WCI   9
$$

 *****  OTHER OBSERVATIONS NORTHEAST NORTH DAKOTA  *****

CITY           SKY/WX    TMP DP  RH WIND       PRES   REMARKS
WALHALLA         N/A     27  27 100 E10       29.69S WCI  17
LANGDON        NOT AVBL
CAVALIER         N/A     27  27 100 SE8       29.70S WCI  18
GRAFTON        CLOUDY    27  27 100 SE8       29.73R FOG     WCI  18
CANDO          CLOUDY    23  23 100 SE15      29.63R WCI  10
FORT TOTTEN      N/A     25  25 100 E7        29.95S WCI  17
ROLLA          FLURRIES  19  19 100 SE6       29.59S WCI  11
RUGBY            N/A     25  25 100 SE13      29.57S WCI  13
 ***** THE ABOVE OBSERVATIONS ARE NON NWS ARE NOT QUALITY
        CONTROLLED AND MAY MIS-REPORT RAIN FOR SNOW...
$$

 *****  OTHER OBSERVATIONS SOUTHEAST NORTH DAKOTA *****

CITY           SKY/WX    TMP DP  RH WIND       PRES   REMARKS
COOPERSTOWN    NOT AVBL
VALLEY CITY    NOT AVBL
OAKES          NOT AVBL
GWINNER          N/A     32  30  93 E10       29.58S WCI  24
SHEYENNE NWR     N/A     30  27  87 E7        29.95S WCI  23
BUFFALO        NOT AVBL
WYNDMERE       NOT AVBL
 ***** THE ABOVE OBSERVATIONS ARE NON NWS ARE NOT QUALITY
       CONTROLLED AND MAY MIS-REPORT RAIN FOR SNOW...
$$

  *****  WEATHER ACROSS NORTHERN MINNESOTA  *****

CITY           SKY/WX    TMP DP  RH WIND       PRES   REMARKS
FLAG ISLAND    CLOUDY    30  25  80 CALM      29.72R
WARROAD        CLOUDY    30  27  86 CALM      29.73S
ROSEAU         CLOUDY    30  25  80 E3        29.73F
HALLOCK        CLOUDY    28  27  93 E10       29.71R WCI  19
THF RVR FALLS  CLOUDY    26  25  96 E13       29.70F FOG     WCI  15
HALSTAD          N/A     26  25  94 E9          N/A  WCI  17
FOSSTON        CLOUDY    27  25  93 E9        29.69F FOG     WCI  17
BAUDETTE       CLOUDY    30  25  81 CALM      29.74R
WASKISH        CLOUDY    28  27  93 SE3       29.75S
CROOKSTON      CLOUDY    28  27  93 E10       29.69S FOG     WCI  19
$$
  *****  WEATHER ACROSS CENTRAL AND WEST MINNESOTA  *****

CITY           SKY/WX    TMP DP  RH WIND       PRES   REMARKS
BEMIDJI        CLOUDY    26  25  95 E8        29.72R WCI  18
PARK RAPIDS    FOG       26  23  88 E8        29.70R VSB 1/4 WCI  18
WADENA         MOSUNNY   25  23  93 E5        29.69R FOG     WCI  19
DETROIT LAKES  PTSUNNY   27  27 100 E5        29.67F WCI  21
MOORHEAD       CLOUDY    30  27  86 E9        29.64F WCI  22
FERGUS FALLS   CLOUDY    32  27  80 E10G17    29.66F WCI  24
ELBOW LAKE     FAIR      32  29  87 SE16      29.62F WCI  21
MORRIS MN      CLOUDY    36  30  80 SE14      29.59F
STAPLES        PTSUNNY   25  25 100 E3        29.71R
WHEATON        NOT AVBL
$$
  *****  WEATHER ELSEWHERE ACROSS MINNESOTA  *****

CITY           SKY/WX    TMP DP  RH WIND       PRES   REMARKS
DULUTH         MOSUNNY   31  27  85 CALM      29.77R
INTRNTL FALLS  CLOUDY    29  26  89 SW6       29.76R WCI  23
ELY            CLOUDY    28  27  93 W6        29.77R WCI  22
CLOQUET        PTSUNNY   30  27  86 S5        29.76F
BRAINERD       FOG       27  27 100 VRB5      29.74R VSB 1/4 WCI  22
HIBBING        CLOUDY    28  24  85 VRB3      29.76S
ALEXANDRIA     SUNNY     31  28  89 E13       29.65F WCI  21
SAINT CLOUD    MOSUNNY   32  31  96 E9        29.71F WCI  24
MINNEAPOLIS    PTSUNNY   33  29  85 E12       29.74F WCI  24
$$

  *****  WEATHER ACROSS SOUTH DAKOTA  *****

CITY           SKY/WX    TMP DP  RH WIND       PRES   REMARKS
SIOUX FALLS    CLOUDY    39  30  70 S15G22    29.54F
BROOKINGS      CLOUDY    34  30  85 S10       29.53F
WATERTOWN      CLOUDY    33  28  81 SE9       29.53F
HURON          CLOUDY    34  29  82 MISG      29.50F
SISSETON         N/A     29  27  92 SE6       29.58F WCI  23
ABERDEEN       CLOUDY    32  28  85 E8        29.52F WCI  25
MITCHELL       CLOUDY    36  30  79 SE8       29.50F
PIERRE         MOSUNNY   26  22  84 N7        29.47S WCI  18
MOBRIDGE       CLOUDY    31  25  78 N7        29.49R WCI  24
RAPID CITY     PTSUNNY   31  24  75 NW38G46   29.56R WCI  15
$$

  *****  SOME WEATHER IN NEARBY STATES *****

CITY           SKY/WX    TMP DP  RH WIND       PRES   REMARKS
GLASGOW MT     LGT SNOW  14  10  84 NW31G43   29.83R FOG     WCI  -7
GREAT FALLS MT CLOUDY    13   8  81 NW12      29.97R WCI  -1
CHEYENNE WY    NOT AVBL
SCOTTSBLUFF NE SUNNY     47  23  38 W12       29.55S
OMAHA NE       PTSUNNY   41  32  70 S17       29.74F
DES MOINES IA  FAIR      39  35  86 S12       29.85S
DAVENPORT IA   CLOUDY    31  31 100 S15       29.97S FOG     WCI  20
CHICAGO IL     CLOUDY    32  30  92 S13       30.03R FOG     WCI  22
EAU CLAIRE WI  CLOUDY    31  31 100 SE8       29.84S FOG     WCI  23
LA CROSSE WI   CLOUDY    36  33  89 S13       29.88S
$$

  *****  SOME NATIONAL WEATHER *****

CITY           SKY/WX    TMP DP  RH WIND       PRES   REMARKS
LA GUARDIA NY  PTSUNNY   46  39  76 W8        29.98F
RALEIGH NC     MOSUNNY   50  44  80 NE3       30.04S
ATLANTA GA     CLOUDY    49  47  93 CALM      30.01F FOG
NEW ORLEANS LA TSTM      60  60 100 NE12G17   29.82F FOG
OKLAHOMA CITY  FOG       40  40 100 S9        29.88R VSB 1/2
ALBUQUERQUE NM MOSUNNY   34  17  50 CALM      29.92S
SALT LAKE CITY CLOUDY    31  13  47 NW14      30.03R WCI  21
LOS ANGELES CA FOG       53  53 100 CALM      29.98R VSB 3/4
BOISE ID       CLEAR     22  16  78 E3        30.14S
SEATTLE WA     SNOW      33  33 100 S8        30.08R VSB 1/2
$$

*** WEATHER ACROSS MANITOBA...SASKATCHEWAN AND ONTARIO ***
                ***ONTARIO***

CITY           SKY/WX    TMP DP  RH WIND       PRES   REMARKS
GERALDTON      FOG       27  27 100 W6        29.69R VSB 1/2 WCI  20
THUNDER BAY    PTSUNNY   32  32 100 W3        29.77R
SIOUX LOOKOUT  FLURRIES  30  28  93 W3        29.70R
TORONTO        PTSUNNY   39  34  81 W17G24    29.92R
BIG TROUT LK   CLOUDY    25  23  93 SE3       29.73R
PICKLE LAKE    FLURRIES  21  19  93 CALM      29.70R
DRYDEN         CLOUDY    30  28  93 W6        29.70R WCI  24
KENORA         CLOUDY    30  28  93 W5        29.71R
$$
                *** MANITOBA***

CITY           SKY/WX    TMP DP  RH WIND       PRES   REMARKS
BRANDON        SNOW      23  21  93 E15       29.64S VSB 1/2 WCI  10
DAUPHIN        FOG       18  16  93 W7        29.71R VSB 1/2 WCI   8
ISLAND LAKE    FLURRIES  23  21  93 CALM      29.71R
PILOT MOUND      N/A     25  23  93 E6          N/A  WCI  18
THE PAS        CLOUDY    21  18  86 SW7       29.73R WCI  13
THOMPSON       LGT SNOW  23  21  93 NE3       29.73R
WINNIPEG       CLOUDY    30  27  86 E3        29.72F
LYNN LAKE      CLOUDY    25  25 100 NW2       29.70R FOG
CHURCHILL      FLURRIES  23  21  93 SE3       29.83S
GILLAM         MOCLDY    16  14  93 NE3       29.78R
$$
                ***SASKATCHEWAN***

CITY           SKY/WX    TMP DP  RH WIND       PRES   REMARKS
ESTEVAN        SNOW      21  19  93 N8        29.58R VSB 1/2 WCI  12
KINDERSLEY     MOCLDY     5   0  78 NW22      29.92R WCI -16
LLOYDMINSTER   MOCLDY     1  -4  78 NW22G30   29.96R WCI -21
PRINCE ALBERT  FLURRIES  14   7  73 NW17      29.83R WCI  -3
REGINA         CLOUDY    19  16  86 NW24G31   29.73R WCI   2
YORKTON        CLOUDY    12  10  92 NW9       29.69R WC1F1C2F2C3F3C4F4C5F5C6F6C7F7C8F8C9F9CaFaCbFbCcFcCdFdCe!


USA.gov is the U.S. government's official web portal to all federal, state and local government web resources and services.